Location: Gro� Glienicke
(52.4675°N, 13.1079°E)
Time: 03:04:17
(UTC+00:00)

TSX-5 - Pass Details

Date: 06 July 2020
Orbit: 404 x 1328 km, 68.9° (Epoch: 04 August)

Event Time Altitude Azimuth Distance (km) Brightness Sun altitude
Rises 21:22:11 0° 321° (NW) 2,405 8.9 -11.2°
Reaches altitude 10° 21:24:09 10° 316° (NW) 1,589 7.5 -11.3°
Maximum altitude 21:27:29 50° 240° (WSW) 646 4.1 -11.5°
Enters shadow 21:30:22 17° 169° (S) 1,449 5.3 -11.7°
